[[{"header":{"parameterUnit":"m.s-1","parameterCategory":1,"la1":30.2991,"la2":30.254,"lo1":-89.0895,"lo2":-89.0444,"dy":0.0017,"dx":0.0017,"nx":28,"ny":28,"refTime":"2024-08-29T21:00:00:Z","depth":0,"parameterNumber":2,"parameterNumberName":"U-component_of_WINDS"},"data":[0,0,0,0,0,0,0,0,0,0,0,0,0,0,0,0,0,0,0,0,0,0,0,0,0,0,0,0,0,0,0,0,0,0,0,0,0,0,0,0,0,0,0,0,0,0,0,0,0,0,0,0,0,0,0,0,0,0,-4.9309,-4.9308,0,-4.9248,-4.9247,-4.9246,-4.9156,-4.9154,-4.9152,-4.9151,-4.9089,-4.9089,-4.9089,0,0,0,0,0,0,0,0,0,0,0,0,0,-4.9348,-4.9348,-4.9309,-4.9308,-4.9307,-4.9248,-4.9247,-4.9246,-4.9156,-4.9154,-4.9152,-4.915,-4.9089,-4.9089,-4.9089,0,0,0,0,0,0,0,0,0,0,0,0,0,-4.9314,-4.9348,-4.9309,-4.9255,-4.925,-4.9248,-4.9247,-4.9246,-4.9156,-4.9154,-4.9152,-4.9149,-4.9089,-4.9089,-4.9089,-4.9135,0,0,-4.9088,-4.9088,0,0,0,0,0,0,0,0,-4.9316,-4.9312,-4.9264,-4.9259,-4.9253,-4.9207,-4.9238,-4.9209,-4.9157,-4.9192,-4.9151,-4.9148,-4.913,-4.9126,-4.912,-4.9132,-4.9129,-4.9088,-4.9088,-4.9088,-4.9088,0,0,0,0,0,0,0,-4.9318,-4.9314,-4.9284,-4.9263,-4.9256,-4.9234,-4.9227,-4.9232,-4.9175,-4.9189,-4.9182,-4.9176,-4.9127,-4.9121,-4.9118,-4.9128,-4.9088,-4.9088,-4.9087,-4.9087,-4.9173,-4.9176,0,0,0,0,0,0,-4.9328,-4.9317,-4.9286,-4.9283,-4.9279,-4.9236,-4.9227,-4.9224,-4.9175,-4.9165,-4.9178,-4.9172,-4.9122,-4.9118,-4.9116,-4.9164,-4.9088,-4.9087,-4.9087,-4.9171,-4.9174,-4.9177,0,0,0,0,0,0,-4.933,-4.9327,-4.9289,-4.9298,-4.9291,-4.9237,-4.9235,-4.9224,-4.9218,-4.9167,-4.9156,-4.9182,-4.912,-4.9116,-4.913,-4.9161,-4.9087,-4.9087,-4.9168,-4.9172,-4.9175,-4.9263,0,0,0,0,0,0,-4.9331,-4.9328,-4.9344,-4.9299,-4.9291,-4.9305,-4.9237,-4.9225,-4.9217,-4.9209,-4.9168,-4.9159,-4.9118,-4.9131,-4.913,-4.9159,-4.9087,-4.9165,-4.917,-4.9174,-4.9257,-4.9269,-4.928,0,0,0,0,0,-4.9333,-4.9372,-4.9345,-4.9342,-4.9311,-4.9306,-4.9302,-4.9254,-4.922,-4.9236,-4.9204,-4.916,-4.9159,-4.9133,-4.9131,-4.9161,-4.9163,-4.9169,-4.9174,-4.9252,-4.9267,-4.9279,0,0,0,0,0,0,-4.9422,-4.9365,-4.9335,-4.936,-4.9339,-4.9291,-4.931,-4.9272,-4.9259,-4.9252,-4.9194,-4.9185,-4.9206,-4.9186,-4.9159,-4.9202,-4.9154,-4.9159,-4.9214,-4.9228,-4.9239,-4.9242,-4.9087,0,0,0,0,0,-4.9445,-4.9445,-4.9396,-4.9423,-4.9414,-4.9364,-4.9361,-4.9326,-4.9301,-4.9292,-4.926,-4.9238,-4.9232,-4.923,-4.9222,-4.9255,-4.9244,-4.9275,-4.9286,-4.9296,-4.9299,-4.9313,-4.9326,-4.9195,-4.9195,-4.9195,0,0,-4.9491,-4.946,-4.9464,-4.944,-4.9419,-4.9421,-4.9357,-4.9362,-4.9363,-4.9292,-4.9303,-4.928,-4.9251,-4.9275,-4.9284,-4.9258,-4.9334,-4.9302,-4.931,-4.9309,-4.932,-4.9333,-4.9344,-4.9198,-4.9198,-4.9197,0,0,-4.9575,-4.9554,-4.9572,-4.9553,-4.9523,-4.949,-4.9495,-4.9453,-4.9434,-4.9445,-4.9391,-4.9392,-4.9384,-4.9365,-4.9355,-4.9435,-4.9393,-4.9435,-4.9491,-4.9506,-4.9516,-4.9525,-4.955,-4.956,-4.944,-4.944,-4.944,0,-4.9637,-4.9637,-4.9587,-4.9595,-4.9585,-4.9523,-4.9541,-4.9526,-4.9495,-4.9489,-4.9462,-4.945,-4.9427,-4.9444,-4.9463,-4.9458,-4.9461,-4.9436,-4.9519,-4.9527,-4.9534,-4.9558,-4.9568,-4.9445,-4.9444,-4.9444,-4.9443,0,-4.9713,-4.9714,-4.9733,-4.9704,-4.9697,-4.9711,-4.9663,-4.9663,-4.963,-4.96,-4.961,-4.9581,-4.9565,-4.9568,-4.9536,-4.958,-4.9565,-4.953,-4.9479,-4.9553,-4.9573,-4.9582,-4.9452,-4.945,-4.9448,-4.9447,0,0,-4.9848,-4.9792,-4.9799,-4.9785,-4.9747,-4.9747,-4.9759,-4.9743,-4.9742,-4.9725,-4.9731,-4.9727,-4.9693,-4.9681,-4.9647,-4.9661,-4.9722,-4.9623,-4.9621,-4.9639,-4.9766,-4.979,-4.9802,-4.9696,-4.9698,-4.9699,-4.9768,0,-4.9922,-4.9936,-4.9892,-4.9917,-4.9917,-4.9859,-4.9868,-4.9847,-4.982,-4.9816,-4.9787,-4.9783,-4.9741,-4.9733,-4.9744,-4.9712,-4.9746,-4.9707,-4.97,-4.97,-4.9704,-4.9813,-4.9839,-4.9904,-4.9776,-4.9777,-4.9778,0,-5.0009,-4.9995,-5.002,-4.998,-4.9979,-4.9988,-4.9969,-4.9967,-4.9942,-4.9921,-4.9909,-4.9869,-4.9877,-4.9833,-4.9841,-4.9816,-4.9811,-4.9795,-4.9797,-4.9791,-4.974,-4.9806,-4.9925,-4.9933,-4.9791,-4.979,-4.9789,0,-5.0101,-5.0088,-5.0101,-5.0091,-5.0046,-5.0054,-5.0036,-5.0008,-5.0001,-4.9986,-4.9981,-4.9968,-4.996,-4.995,-4.9908,-4.988,-4.9921,-4.9874,-4.9903,-4.9904,-4.991,-4.991,-5.0025,-4.9915,-4.9914,-4.9914,-4.9914,0,-5.0186,-5.0203,-5.0141,-5.0148,-5.0166,-5.0117,-5.0135,-5.0111,-5.0087,-5.0089,-5.004,-5.0042,-4.9988,-4.9985,-4.9953,-4.9964,-4.9962,-4.9944,-4.9934,-4.9946,-4.9948,-4.9938,-4.9931,-4.9917,-4.9916,-4.9916,-4.9915,0,-5.0289,-5.0249,-5.0258,-5.0216,-5.0206,-5.022,-5.0183,-5.0188,-5.016,-5.0162,-5.016,-5.0115,-5.0108,-5.0066,-5.0051,-5.0029,-5.0051,-5.0034,-5.0059,-5.0052,-5.0082,-5.0078,-5.0192,-5.0203,-5.009,-5.0091,-5.0092,0,-5.0344,-5.0355,-5.0314,-5.0311,-5.0295,-5.0292,-5.0285,-5.0238,-5.0233,-5.0205,-5.0213,-5.0203,-5.0191,-5.0184,-5.0149,-5.0137,-5.0118,-5.0159,-5.0115,-5.0126,-5.0114,-5.0112,-5.0111,-5.0166,-5.0168,-5.0169,-5.017,0,-5.0444,-5.0424,-5.0415,-5.04,-5.0393,-5.0379,-5.0361,-5.0362,-5.031,-5.0307,-5.03,-5.0291,-5.0275,-5.0265,-5.0247,-5.0228,-5.019,-5.0185,-5.019,-5.02,-5.0212,-5.0202,-5.0079,-5.0181,-5.018,-5.0179,-5.0179,-5.0178,-5.0522,-5.0528,-5.05,-5.0492,-5.0475,-5.046,-5.0462,-5.0433,-5.0426,-5.0409,-5.0383,-5.0379,-5.0353,-5.0325,-5.0309,-5.0305,-5.0283,-5.0292,-5.0294,-5.0295,-5.03,-5.0217,-5.0303,-5.0302,-5.0302,-5.0302,-5.0301,0,-5.0616,-5.0596,-5.0589,-5.0566,-5.056,-5.0527,-5.0506,-5.0503,-5.0499,-5.0479,-5.0469,-5.046,-5.0451,-5.0416,-5.0402,-5.0406,-5.0388,-5.0403,-5.04,-5.0396,-5.0322,-5.0317,-5.0418,-5.0418,-5.0418,-5.0418,-5.0418,-5.0418,-5.0664,-5.0673,-5.065,-5.0649,-5.0629,-5.0624,-5.0615,-5.0601,-5.0584,-5.0576,-5.0567,-5.0545,-5.0519,-5.0503,-5.0492,-5.0482,-5.0478,-5.0498,-5.0483,-5.0413,-5.0402,-5.0391,-5.0385,-5.0499,-5.0499,-5.0556,-5.0557,-5.0557]},{"header":{"parameterUnit":"m.s-1","parameterCategory":1,"la1":30.2991,"la2":30.254,"lo1":-89.0895,"lo2":-89.0444,"dy":0.0017,"dx":0.0017,"nx":28,"ny":28,"refTime":"2024-08-29T21:00:00:Z","depth":0,"parameterNumber":3,"parameterNumberName":"V-component_of_WINDS"},"data":[0,0,0,0,0,0,0,0,0,0,0,0,0,0,0,0,0,0,0,0,0,0,0,0,0,0,0,0,0,0,0,0,0,0,0,0,0,0,0,0,0,0,0,0,0,0,0,0,0,0,0,0,0,0,0,0,0,0,0.7261,0.7263,0,0.7367,0.7369,0.737,0.7427,0.7427,0.7427,0.7427,0.7535,0.7537,0.754,0,0,0,0,0,0,0,0,0,0,0,0,0,0.7109,0.7112,0.7261,0.7263,0.7264,0.7367,0.7369,0.737,0.7427,0.7427,0.7427,0.7427,0.7534,0.7537,0.754,0,0,0,0,0,0,0,0,0,0,0,0,0,0.7191,0.7112,0.7261,0.7305,0.731,0.7367,0.7369,0.7371,0.7427,0.7427,0.7427,0.7428,0.7533,0.7537,0.7541,0.7562,0,0,0.7553,0.7555,0,0,0,0,0,0,0,0,0.7186,0.7197,0.7297,0.7302,0.7308,0.7384,0.7354,0.7435,0.7427,0.7382,0.7427,0.7428,0.7484,0.7492,0.7512,0.7567,0.7572,0.7553,0.7556,0.7558,0.7559,0,0,0,0,0,0,0,0.7181,0.7192,0.7303,0.7298,0.7305,0.732,0.7331,0.737,0.7431,0.7386,0.7391,0.7403,0.7487,0.7508,0.7515,0.7573,0.7553,0.7557,0.756,0.7561,0.7655,0.7655,0,0,0,0,0,0,0.7168,0.7187,0.73,0.7306,0.7246,0.7322,0.7335,0.7359,0.7431,0.7442,0.7402,0.7405,0.7501,0.751,0.7519,0.7551,0.7558,0.7562,0.7564,0.7655,0.7655,0.7655,0,0,0,0,0,0,0.7164,0.7177,0.7296,0.7248,0.7264,0.7325,0.7351,0.7361,0.7382,0.7443,0.7454,0.7412,0.7501,0.7513,0.7552,0.7555,0.7563,0.7567,0.7655,0.7655,0.7655,0.7613,0,0,0,0,0,0,0.716,0.7176,0.7184,0.7248,0.7267,0.7326,0.7351,0.7363,0.7389,0.7393,0.7455,0.7465,0.7502,0.7545,0.7556,0.7561,0.757,0.7655,0.7655,0.7655,0.7615,0.7612,0.7609,0,0,0,0,0,0.7154,0.7167,0.7184,0.7197,0.7278,0.7326,0.7337,0.738,0.7389,0.7398,0.7438,0.7463,0.7553,0.7549,0.7561,0.7567,0.7655,0.7655,0.7655,0.7616,0.7612,0.761,0,0,0,0,0,0,0.71,0.7176,0.7196,0.723,0.7271,0.7336,0.7349,0.7374,0.7414,0.7416,0.7467,0.7481,0.7515,0.7545,0.7539,0.7594,0.7607,0.7609,0.7573,0.757,0.7568,0.756,0.7574,0,0,0,0,0,0.7093,0.7125,0.719,0.7213,0.7233,0.7287,0.731,0.734,0.7385,0.7402,0.7445,0.7487,0.7526,0.7549,0.7588,0.7619,0.7635,0.763,0.7628,0.7625,0.7627,0.7649,0.7648,0.7655,0.7655,0.7655,0,0,0.7076,0.7122,0.7139,0.7204,0.724,0.7273,0.7302,0.7335,0.7361,0.7407,0.7447,0.748,0.7531,0.7567,0.7585,0.7593,0.7629,0.7625,0.7623,0.7626,0.7649,0.7648,0.7647,0.7655,0.7655,0.7655,0,0,0.7065,0.7101,0.7127,0.7163,0.7217,0.7254,0.726,0.7322,0.7346,0.7387,0.7423,0.7455,0.7518,0.7555,0.7581,0.7587,0.7612,0.7598,0.7584,0.7605,0.7605,0.7604,0.7608,0.7609,0.7599,0.7599,0.7599,0,0.7037,0.709,0.7136,0.7169,0.7197,0.7242,0.7269,0.7302,0.7365,0.7384,0.7393,0.7477,0.7514,0.756,0.7562,0.7581,0.7591,0.7591,0.7601,0.7601,0.7602,0.7606,0.7607,0.7597,0.7597,0.7597,0.7598,0,0.7055,0.7091,0.7104,0.7167,0.7197,0.7226,0.7278,0.7303,0.7331,0.7367,0.7409,0.7456,0.7506,0.752,0.7546,0.7571,0.7574,0.7591,0.7605,0.7598,0.7603,0.7605,0.7594,0.7595,0.7595,0.7596,0,0,0.701,0.71,0.7105,0.7135,0.72,0.7229,0.7261,0.7311,0.7333,0.7376,0.7405,0.746,0.7477,0.7507,0.7539,0.7557,0.7561,0.7572,0.7574,0.757,0.7594,0.7581,0.7582,0.7579,0.7579,0.758,0.759,0,0.7009,0.7069,0.7114,0.7158,0.7193,0.7238,0.7266,0.731,0.7345,0.738,0.7419,0.7458,0.7476,0.7495,0.7515,0.7556,0.7567,0.7556,0.7608,0.7609,0.7594,0.7585,0.7571,0.7579,0.7592,0.7593,0.7593,0,0.7014,0.7058,0.7106,0.717,0.7187,0.7211,0.7263,0.7295,0.7347,0.7371,0.7406,0.744,0.7477,0.7488,0.7542,0.7534,0.7558,0.7581,0.7583,0.759,0.76,0.7592,0.7582,0.7583,0.7596,0.7596,0.7595,0,0.6979,0.705,0.7089,0.7113,0.7188,0.7205,0.7237,0.7289,0.7317,0.7362,0.7381,0.7429,0.7456,0.7493,0.7539,0.7542,0.7588,0.7602,0.761,0.7609,0.7618,0.7617,0.7612,0.7632,0.7632,0.7632,0.7632,0,0.6973,0.7001,0.7074,0.7098,0.7131,0.7183,0.7214,0.7251,0.7297,0.7329,0.737,0.74,0.7458,0.7495,0.7531,0.7571,0.7583,0.7604,0.7614,0.7601,0.7598,0.7617,0.7618,0.7632,0.7632,0.7632,0.7632,0,0.6939,0.6989,0.7034,0.7103,0.7122,0.7143,0.7203,0.7228,0.7266,0.7307,0.7319,0.7379,0.7426,0.7475,0.7537,0.7562,0.76,0.7613,0.7583,0.7589,0.7595,0.7594,0.7602,0.7607,0.7622,0.7622,0.7622,0,0.6932,0.6955,0.7028,0.7053,0.7084,0.7124,0.7154,0.7206,0.7236,0.7298,0.7316,0.7366,0.7408,0.7479,0.7529,0.7577,0.7592,0.7592,0.76,0.7587,0.7594,0.7593,0.7596,0.759,0.7589,0.7589,0.7588,0,0.6916,0.694,0.6982,0.7033,0.7068,0.7111,0.7155,0.7173,0.7235,0.7266,0.7314,0.7347,0.7412,0.7461,0.7517,0.755,0.758,0.7586,0.7591,0.7578,0.7561,0.7572,0.7578,0.7585,0.7586,0.7586,0.7586,0.7586,0.6896,0.692,0.6975,0.7021,0.7061,0.7102,0.713,0.7173,0.7214,0.7272,0.7301,0.7349,0.7403,0.748,0.7514,0.7553,0.7562,0.7568,0.757,0.7571,0.7568,0.7554,0.7563,0.7563,0.7563,0.7563,0.7564,0,0.6883,0.6922,0.6964,0.7025,0.7062,0.7088,0.7139,0.7168,0.7211,0.7259,0.73,0.7357,0.7406,0.746,0.7512,0.7534,0.7549,0.7546,0.7545,0.7553,0.7557,0.7548,0.7533,0.7533,0.7533,0.7533,0.7533,0.7533,0.688,0.6923,0.6954,0.7017,0.7056,0.7105,0.7132,0.7171,0.7209,0.7271,0.7313,0.7348,0.7399,0.7456,0.7503,0.7517,0.7535,0.7528,0.7547,0.755,0.7552,0.7554,0.7547,0.7531,0.7531,0.754,0.754,0.7541]}]]